Weather in Staryye Tuymazy

Russia / Republic of Bashkortostan     54°32′47″N   53°36′27″E
temp.,
°C
wind,
m/s
gust,
m/s
humid.,
%
clouds,
%
prec.,
mm/h
press.,
hPa
HPBL,
m
28 february, sun
sun2823:00−3sse2697100 1.8 998185
02:00−4ese1198100 0.4 99822
05:00−4nnw2397100 1.0 99987
08:00−9nnw379696 0.4 1000198
11:00−10n479596 0.6 1001295
14:00−10n5894100 0.1 1003380
17:00−10nnw5893100 0.2 1005438
20:00−13nnw489599 0.1 1007274
1 march, mon
mon123:00−15nw369797 0.1 1010141
02:00−16nw2497100 0.1 1012108
05:00−17nw3697100 0.1 1014200
08:00−18nw249795 0.1 1016102
11:00−18nw249598 0.1 1018252
14:00−15nw3490100 0.0 1019329
17:00−15nw3592100 0.1 1020393
20:00−20wnw1110096 0.0 102020
2 march, tue
tue223:00−21wsw2210083 0.0 102020
02:00−22sw339718 0.0 101927
05:00−22ssw359722 0.0 101792
08:00−20s5109877 0.0 1014258
11:00−16ssw6149489 0.1 1011357
14:00−12ssw81492100 0.3 1008497
17:00−9ssw81491100 0.8 1005630
20:00−9ssw71591100 0.4 1003613
3 march, wed
wed323:00−6ssw71491100 0.7 1001575
02:00−5ssw6129397 0.2 998445
05:00−5ssw499598 0.4 997263
08:00−4sw389694 0.1 997253
11:00−3wnw599397 0.4 999541
14:00−4nw589299 0.1 1000486
17:00−4nw479298 0.1 1001532
20:00−5nw489499 0.1 1002539
4 march, thu
thu423:00−7wnw369599 0.3 1005147
02:00−8wnw379588 0.1 1005174
05:00−9wnw379691 0.2 1007166
08:00−14w239675 0.0 100925
11:00−10w379377 0.0 1010285
14:00−7w598859 0.0 1011530
17:00−6sw6108771 0.0 1010700
20:00−7sw7159199 0.0 1008573